Regional Weather Roundup
Issued by NWS Newport/Morehead, NC

Current Version | Previous Version | Text Only | Print | Product List | Glossary Off
Versions: 1 2 3 4 5 6 7 8 9 10 11 12 13 14 15 16 17 18 19 20 21 22 23 24 25 26 27 28 29 30 31 32 33 34 35 36 37 38 39 40 41 42 43 44 45 46 47 48 49 50
000 ASUS42 KMHX 261510 RWRMHX WEATHER ROUNDUP FOR EASTERN NORTH CAROLINA NATIONAL WEATHER SERVICE NEWPORT/MOREHEAD CITY NC 1000 AM EST WED NOV 26 2014 NOTE: "FAIR" INDICATES FEW OR NO CLOUDS BELOW 12,000 FEET WITH NO SIGNIFICANT WEATHER AND/OR OBSTRUCTIONS TO VISIBILITY NCZ015>017-031-032-045>047-102-103-261600- NORTH COAST CITY SKY/WX TMP DP RH WIND PRES REMARKS EDENTON RAIN 49 48 98 N16G22 29.79S ELIZABETH CITY RAIN 53 49 86 N18 29.78S FOG KITTY HAWK LGT RAIN 59 58 99 NW9 29.72R MANTEO RAIN 60 59 98 N16 29.73F $$ NCZ045>047-081-094-103-104-261600- CENTRAL COAST CITY SKY/WX TMP DP RH WIND PRES REMARKS FRISCO LGT RAIN 72 70 93 S21G30 29.74F FOG SWANQUARTER N/A 61 N/A N/A W7G14 29.68S $$ NCZ095-097-098-100-101-261600- SOUTHERN COAST CITY SKY/WX TMP DP RH WIND PRES REMARKS BEAUFORT LGT RAIN 69 68 96 S20G25 29.73F FOG CEDAR ISLAND N/A 72 N/A N/A S14G24 29.74F JACKSONVILLE HVY RAIN 49 47 93 NW15G29 29.80R VSB 1 PINEY ISLAND RAIN 74 70 87 S18 29.72S FOG WILMINGTON HVY RAIN 51 49 92 NW22G29 29.83R FOG $$ NCZ011>013-027>030-043-044-078>080-089-090>093-098-261600- COASTAL PLAIN CITY SKY/WX TMP DP RH WIND PRES REMARKS AHOSKIE LGT RAIN 44 42 94 N12G21 29.89R VSB 1 CLINTON CLOUDY 47 47 97 N8 29.91R ELIZABETHTOWN LGT RAIN 49 49 97 N6 29.89R GOLDSBORO CLOUDY 46 45 93 N16G26 29.85S GREENVILLE HVY RAIN 45 45 100 N17G23 29.87S HAVELOCK RAIN 72 69 90 S13G23 29.73R FOG KENANSVILLE CLOUDY 46 45 95 N17 29.87R KINSTON LGT RAIN 46 45 93 N17G28 29.83S NEW BERN HVY RAIN 53 49 86 NW16G26 29.79R FOG RICHLANDS CLOUDY 46 43 87 N13G20 29.82R ROCKY MOUNT RAIN 46 43 89 N20G30 29.90R FOG WASHINGTON CLOUDY 47 46 95 NW12G22 29.81R WHITEVILLE CLOUDY 50 47 90 N9G22 29.85F $$ AMZ130-135-150-152-154-156-158-170-250-252-270-ANZ085-086-088-633-658-670-261600- MARINE OBSERVATIONS STATION/POSITION TIME TEMP WIND PRES WAVE SWELL AIR SEA DIR/SP/G HT/PER HT/PER (UTC) (F) (DEG/KT/KT) (MB) (FT/S) (FT/S) CHESAPEAKE LIGHT 1400 52 30/ 33/ 37 1009.2 64 E VA BEACH 1500 73 67 180/ 21/ 27 1005.0 8/ 8 7/ 8 DUCK 1500 55 58 350/ 27/ 30 1005.4 2 E DUCK 1500 58 N/A 8/ 7 2/11 10 NE DUCK 1500 60 N/A 9/ 7 2/11 OREGON INLET 1500 64 57 180/ 14/ 17 1006.2 13E OREGON INLT 1500 62 N/A 8/ 8 2/11 HATTERAS CG 1500 73 62 180/ 18/ 23 1007.2 DIAMOND BUOY 1500 76 180/ 25/ 29 1007.0 11/ 8 2/13 17 S OCRACOKE NOT AVBL CAPE LOOKOUT 1400 68 170/ 17/ 20 1006.7 BEAUFORT LAB 1500 65 59 190/ 12/ 14 1005.6 30 SE NEW RIVER 1500 73 68 180/ 21/ 25 1006.3 8/ 7 5 SE WRIGHTSVLE 1400 60 59 210/ 12/ 14 1005.5 225 S CAPE HAT 1408 76 73 190/ 25/ 29 1014.0 9/ 6 2/14 41 SE CHARLESTON 1500 57 75 320/ 21/ 25 1011.7 8/ 6 2/ 9 $$

USA.gov is the U.S. government's official web portal to all federal, state and local government web resources and services.